Simultaneous Nadir Overpasses (SNOs) Predictions

Prediction of SNOs between AQUA and METOP-C Satellite Orbit:

Table of predicted SNOs for the next 14.0 days since TLE Epoch: 6/17/2023
Index Date (AQUA) Time (AQUA) Lat,Lon (AQUA) SZA (AQUA ) Date (METOP-C) Time (METOP-C) Lat,Lon (METOP-C) SZA (METOP-C ) Distance(km) Time Diff (sec)
1 06/17/2023 04:16:26 -73.99, -67.01 129.45 06/17/2023 04:15:19 -73.94, -69.46 129.42 75.49 67
2 06/17/2023 05:06:02 74.51, 99.39 51.11 06/17/2023 05:05:46 74.54, 99.39 51.13 2.75 16
3 06/17/2023 05:55:27 -74.60, -93.17 128.81 06/17/2023 05:56:27 -74.61, -93.11 128.81 2.04 60
4 06/19/2023 22:09:15 -74.51, 23.62 128.96 06/19/2023 22:08:08 -74.49, 23.66 128.97 2.31 67
5 06/19/2023 22:58:41 74.53,-168.78 51.06 06/19/2023 22:58:46 74.54,-168.87 51.08 3.07 5
6 06/19/2023 23:48:11 -74.86, -1.97 128.58 06/19/2023 23:49:21 -74.90, -0.55 128.58 41.47 70
7 06/22/2023 16:01:54 -74.51, 115.48 128.96 06/22/2023 16:01:08 -74.54, 115.53 128.93 3.04 46
8 06/22/2023 16:51:21 74.59, -77.06 51.13 06/22/2023 16:51:46 74.58, -77.03 51.11 1.39 25
9 06/25/2023 09:54:32 -74.51,-152.64 128.91 06/25/2023 09:54:09 -74.52,-152.76 128.89 3.89 23
10 06/25/2023 10:43:59 74.59, 14.80 51.18 06/25/2023 10:44:46 74.61, 14.79 51.19 1.77 47
11 06/28/2023 02:57:42 74.38, 131.89 51.06 06/28/2023 02:56:30 74.30, 131.09 51.01 25.59 72
12 06/28/2023 03:47:09 -74.56, -60.88 128.76 06/28/2023 03:47:08 -74.55, -60.95 128.77 2.40 1
13 06/28/2023 04:36:36 74.64, 106.55 51.34 06/28/2023 04:37:45 74.63, 106.59 51.31 2.05 69
14 06/30/2023 20:50:21 74.53,-136.59 51.37 06/30/2023 20:49:26 74.51,-136.63 51.35 2.52 55
15 06/30/2023 21:39:46 -74.60, 30.90 128.57 06/30/2023 21:40:07 -74.61, 30.96 128.55 2.31 21



Historial Predications of SNOs between AQUA and METOP-C
